Regional Weather Roundup
Issued by NWS State College, PA

Home | Current Version | Previous Version | Text Only | Print | Product List | Glossary On
Versions: 1 2 3 4 5 6 7 8 9 10 11 12 13 14 15 16 17 18 19 20 21 22 23 24 25 26 27 28 29 30 31 32 33 34 35 36 37 38 39 40 41 42 43 44 45 46 47 48 49 50
000
ASUS41 KCTP 230110
RWRCTP

REGIONAL WEATHER ROUNDUP
NATIONAL WEATHER SERVICE STATE COLLEGE PA
900 PM EDT TUE AUG 22 2017

Note: "fair" indicates few or no clouds below 12,000 feet with no
significant weather and/or obstructions to visibility.

* = STATION THAT DOES NOT REPORT PRECIPITATION /E.G. RAIN...SNOW...ETC/
    THUNDER OR FOG.

PAZ002>004-007>009-013>016-020>023-029>032-230200-
WESTERN PENNSYLVANIA

CITY           SKY/WX    TMP DP  RH WIND       PRES   REMARKS
ERIE           MOCLDY    68  66  93 SW8       29.80R
MEADVILLE      LGT RAIN  68  67  96 W7        29.84R
FRANKLIN*      CLOUDY    66  63  88 SW5       29.84S
NEW CASTLE     FAIR      71  68  90 SW3       29.85R
BEAVER COUNTY  CLEAR     70  64  83 SW7       29.86
BUTLER*        PTCLDY    69  65  86 SW5       29.86S
PITTSBURGH INT PTCLDY    73  70  90 SW6       29.85F
PITTSBURGH     PTCLDY    72  68  87 S5        29.86S
INDIANA*       CLOUDY    70  70 100 W8        29.89S
LATROBE        PTCLDY    70  70 100 SW9       29.88F
WASHINGTON CO* CLOUDY    72  68  88 CALM      29.87S
$$

PAZ004>006-010>012-017>019-024>028-033>037-041-042-045-046-049>053-230200-
CENTRAL PENNSYLVANIA

CITY           SKY/WX    TMP DP  RH WIND       PRES   REMARKS
BRADFORD       MOCLDY    68  67  96 SW6       29.83F
DUBOIS         MOCLDY    69  66  90 SW10      29.84F
CLEARFIELD     MOCLDY    70  69  97 SW10      29.83F
JOHNSTOWN      CLOUDY    68  67  96 SW9       29.90F
ALTOONA        LGT RAIN  69  69 100 S7        29.87F
STATE COLLEGE  MOCLDY    70  68  94 SW12      29.82F
WILLIAMSPORT   CLOUDY    75  73  93 NW6       29.76F
SELINSGROVE    CLOUDY    74  70  87 VRB7      29.79S
FT INDIANTOWN  MOCLDY    76  71  86 SW12      29.79S
CAPITAL CITY   CLOUDY    77  71  82 W7        29.79R THUNDER
HARRISBURG     TSTM      78  73  84 W14       29.78R
YORK           RAIN      73  73 100 VRB6G20   29.84R VSB 1
$$

PAZ038>040-043-044-047-048-054-055-060>062-067>071-230200-
EASTERN PENNSYLVANIA

CITY           SKY/WX    TMP DP  RH WIND       PRES   REMARKS
SCRANTON       TSTM      72  71  97 VRB6      29.80R
MOUNT POCONO   LGT RAIN  70  68  93 SW8       29.84R
ALLENTOWN      HVY RAIN  77  70  79 W24G47    29.82R
QUAKERTOWN*    PTCLDY    82  72  69 SW9       29.79F
READING        TSTM      74  71  91 VRB3      29.79R
LANCASTER      LGT RAIN  83  73  72 SW8       29.76F
COATESVILLE    CLEAR     81  73  78 VRB6G16   29.81F
POTTSTOWN      PTCLDY    82  72  71 S13G21    29.79F
BLUE BELL      CLEAR     81  72  74 SW12G18   29.81F
DOYLESTOWN     CLEAR     82  72  71 S9        29.78F
WILLOW GROVE   NOT AVBL
NORTH PHILA    CLOUDY    86  71  60 SW12G23   29.80F
PHILADELPHIA   PTCLDY    84  72  67 S15       29.79F
$$




USA.gov is the U.S. government's official web portal to all federal, state and local government web resources and services.